Location: Warwick
(41.7000°N, 71.4170°W)
Time: 07:57:56
(UTC-04:00)

BREEZE-M DEB (TANK) - Visible Passes

Search period start: 20 September 2014 00:00
Search period end: 30 September 2014 00:00
Orbit: 276 x 16064 km, 49.5° (Epoch: 20 September)

Date Brightness Start Highest point End Pass type
(mag) Time Alt. Az. Time Alt. Az. Time Alt. Az.
20 Sep 7.4 01:56:30 10° WNW 04:16:00 56° WSW 04:44:41 10° S visible
20 Sep 8.4 20:17:40 10° WSW 22:06:06 80° NNW 23:54:35 10° E visible
21 Sep 7.4 02:19:05 10° NW 04:30:58 50° W 04:59:43 10° S visible
21 Sep 8.3 20:34:52 10° WSW 22:37:34 79° N 00:11:45 10° ESE visible
22 Sep 7.4 02:41:53 10° NW 04:45:22 44° W 05:14:28 10° SSW visible
22 Sep 8.2 20:52:18 10° WSW 23:08:03 79° N 00:28:40 10° ESE visible
23 Sep 7.4 03:04:56 10° NW 04:59:15 39° W 05:28:52 10° SSW visible
23 Sep 8.4 16:01:56 10° S 16:49:30 52° E 19:06:27 10° NE visible
23 Sep 8.1 21:09:57 10° W 23:35:48 81° NNE 00:45:23 10° ESE visible
24 Sep 7.4 03:28:16 10° NW 05:12:36 34° W 05:42:51 10° SW visible
24 Sep 8.5 16:16:42 10° S 17:04:01 58° ESE 19:26:17 10° ENE visible
24 Sep 8.0 21:27:53 10° W 00:00:50 83° NNE 01:01:52 10° ESE visible
25 Sep 7.5 03:52:04 10° NW 05:25:27 29° W 05:56:15 10° SW visible
25 Sep 8.5 16:31:39 10° S 17:19:12 63° ESE 19:45:50 10° ENE visible
25 Sep 8.0 21:46:04 10° W 00:23:42 85° NNE 01:18:09 10° SE visible
26 Sep 7.6 04:16:33 10° NW 05:37:47 24° WNW 06:08:50 10° WSW visible
26 Sep 8.6 16:46:47 10° SSW 17:35:05 68° ESE 20:05:06 10° ENE visible
26 Sep 7.9 22:04:33 10° W 00:44:53 89° NE 01:34:14 10° SE visible
27 Sep 7.7 04:42:11 10° NW 05:49:37 20° WNW 06:20:07 10° WSW visible
27 Sep 8.7 17:02:04 10° SSW 17:51:44 74° ESE 20:24:07 10° ENE visible
27 Sep 7.8 22:23:19 10° W 01:04:44 87° SW 01:50:06 10° SE visible
28 Sep 7.8 05:09:59 10° NW 06:00:57 16° WNW 06:29:03 10° W visible
28 Sep 8.9 17:17:29 10° SSW 18:09:13 79° ESE 20:42:51 10° ENE visible
28 Sep 7.7 22:42:22 10° WNW 01:23:29 83° SW 02:05:47 10° SE visible
29 Sep 7.9 05:43:12 10° NW 06:11:48 12° WNW 06:32:15 10° W visible
29 Sep 8.8 17:33:02 10° SW 18:27:36 83° SE 21:01:19 10° ENE visible
29 Sep 9.8 23:01:41 10° WNW 00:00:00 40° WNW 00:00:00 40° WNW visible
